Location: Izdebno
(52.6670°N, 16.2170°E)
Time: 20:34:30
(UTC+02:00)

SR - Pass Details

Date: 01 March 2024
Orbit: 577 x 862 km, 66.7° (Epoch: 20 April)

Event Time Altitude Azimuth Distance (km) Brightness Sun altitude
Rises 18:35:21 0° 302° (WNW) 3,366 ? -10.0°
Reaches altitude 10° 18:38:40 10° 321° (NW) 2,385 ? -10.5°
Maximum altitude 18:42:23 18° 4° (N) 1,822 ? -11.0°
Drops below altitude 10° 18:45:55 10° 47° (NE) 2,256 ? -11.6°
Enters shadow 18:46:36 - 52° (NE) 2,423 ? -11.7°
